Regional Weather Roundup
Issued by NWS

Home | Current Version | Previous Version | Graphics & Text | Print | Product List | Glossary On
Versions: 1 2 3 4 5 6 7 8 9 10 11 12 13 14 15 16 17 18 19 20 21 22 23 24 25 26 27 28 29 30 31 32 33 34 35 36 37 38 39 40 41 42 43 44 45 46 47 48 49 50
000
ASUS43 KOAX 271210
RWRNE

WEATHER ROUNDUP FOR NEBRASKA
NATIONAL WEATHER SERVICE OMAHA NE
700 AM CDT MON APR 27 2015

NOTES: SATELLITE DATA IS BEING USED TO AUGMENT CLOUD COVER ABOVE
       12000 FEET.
       "FAIR" INDICATES FEW OR NO CLOUDS BELOW 12,000 FEET WITH NO
       SIGNIFICANT WEATHER AND/OR OBSTRUCTIONS TO VISIBILITY.

  * THESE STATIONS DO NOT REPORT WEATHER SUCH AS RAIN...SNOW OR FOG.

NEZ001>004-019>022-054>056-271300-
NEBRASKA PANHANDLE

CITY           SKY/WX    TMP DP  RH WIND       PRES   REMARKS
SCOTTSBLUFF    CLOUDY    44  50 100 N5        30.19R
6HR MIN TEMP:  44; 6HR MAX TEMP:  45;

ALLIANCE       CLOUDY    43  39  86 NE3       30.19R
6HR MIN TEMP:  42; 6HR MAX TEMP:  43;

CHADRON        CLOUDY    43  40  89 SW5       30.21R
6HR MIN TEMP:  41; 6HR MAX TEMP:  44;

KIMBALL        RAIN      40  40  99 E3        30.17R
SIDNEY         CLOUDY    42  40  92 NE6       30.19R FOG
6HR MIN TEMP:  42; 6HR MAX TEMP:  43;

$$

NEZ057>060-069>072-079>082-271300-
SOUTHWEST NEBRASKA

CITY           SKY/WX    TMP DP  RH WIND       PRES   REMARKS
IMPERIAL       CLOUDY    45  40  82 E7        30.17R
6HR MIN TEMP:  45; 6HR MAX TEMP:  46;

LEXINGTON      PTCLDY    32  31  96 NW6       30.19R FOG     WCI  27
MCCOOK         CLOUDY    39  34  82 N6        30.17R WCI  35
6HR MIN TEMP:  38; 6HR MAX TEMP:  50;

OGALLALA       CLOUDY    45  41  87 NE3       30.19R
$$

NEZ005>010-023>029-035>040-094-271300-
NORTH CENTRAL NEBRASKA

CITY           SKY/WX    TMP DP  RH WIND       PRES   REMARKS
VALENTINE      CLEAR     31  28  89 SW5       30.20R WCI  26
6HR MIN TEMP:  30; 6HR MAX TEMP:  41;

AINSWORTH      CLEAR     34  31  89 W5        30.20R WCI  30
BROKEN BOW     CLEAR     31  27  85 CALM      30.19R FOG
6HR MIN TEMP:  30; 6HR MAX TEMP:  41;

O`NEILL        CLEAR     38  31  77 W7        30.19R WCI  32
ORD            CLEAR     34  31  88 CALM      30.19R FOG
6HR MIN TEMP:  31; 6HR MAX TEMP:  38;

THEDFORD       CLEAR     34  34  98 W3        30.21R FOG
$$

NEZ041-046>049-061>064-073>077-083>087-271300-
SOUTH CENTRAL NEBRASKA

CITY           SKY/WX    TMP DP  RH WIND       PRES   REMARKS
GRAND ISLAND   CLEAR     34  31  88 N5        30.19R WCI  30
6HR MIN TEMP:  34; 6HR MAX TEMP:  42;

AURORA         CLEAR     37  36  93 N7        30.18R WCI  32
HASTINGS       PTCLDY    36  33  89 NE3       30.17R
6HR MIN TEMP:  35; 6HR MAX TEMP:  44;

HEBRON         CLOUDY    37  32  84 CALM      30.17R
HOLDREGE       MOCLDY    35  32  89 N8        30.17R WCI  28
KEARNEY *      PTCLDY    36  30  80 NW7       30.18S WCI  30
YORK           PTCLDY    37  36  93 N7        30.18R WCI  32
$$

NEZ011>018-030>034-042>045-271300-
NORTHEAST NEBRASKA

CITY           SKY/WX    TMP DP  RH WIND       PRES   REMARKS
NORFOLK        CLEAR     36  32  85 W3        30.19R
6HR MIN TEMP:  34; 6HR MAX TEMP:  44;

ALBION         CLEAR     32  30  91 N5        30.19R WCI  27
BLAIR          CLEAR     39  33  77 N6        30.17R
COLUMBUS *     CLEAR     37  28  70 CALM      30.20R
FREMONT        PTCLDY    37  35  92 W3        30.19R
TEKAMAH        PTCLDY    40  33  76 N9        30.19R WCI  34
6HR MIN TEMP:  35; 6HR MAX TEMP:  42;

WAYNE          PTCLDY    32  28  85 CALM      30.21R
$$

NEZ050>053-065>068-078-088>093-271300-
SOUTHEAST NEBRASKA

CITY           SKY/WX    TMP DP  RH WIND       PRES   REMARKS
LINCOLN        PTCLDY    34  31  88 N5        30.19R WCI  30
6HR MIN TEMP:  33; 6HR MAX TEMP:  44;

OMAHA EPPLEY   MOCLDY    38  35  89 N7        30.18R WCI  33
6HR MIN TEMP:  36; 6HR MAX TEMP:  43;

BEATRICE       MOCLDY    36  32  85 CALM      30.17R
FALLS CITY     MOCLDY    44  32  62 N3        30.15R
6HR MIN TEMP:  41; 6HR MAX TEMP:  48;

NEBRASKA CITY  PTCLDY    40  31  67 N5        30.16R
PLATTSMOUTH    PTCLDY    39  33  78 N3        30.16S
$$

NEZ044-045-051>053-067-271300-
OMAHA AREA

CITY           SKY/WX    TMP DP  RH WIND       PRES   REMARKS
OMAHA EPPLEY   MOCLDY    38  35  89 N7        30.18R WCI  33
6HR MIN TEMP:  36; 6HR MAX TEMP:  43;

BLAIR          CLEAR     39  33  77 N6        30.17R
FREMONT        PTCLDY    37  35  92 W3        30.19R
MILLARD        CLEAR     40  35  80 NW3       30.18R
OFFUTT AFB     CLEAR     34  32  94 W3        30.16R
PLATTSMOUTH    PTCLDY    39  33  78 N3        30.16S
WAHOO          FAIR      38  34  84 N7        30.18R WCI  33
$$



USA.gov is the U.S. government's official web portal to all federal, state and local government web resources and services.